Belmar-Farmingdale, NJ

5:32 AM EDT on March 29, 2017 (GMT -0400)
Allaire

Weather History for KBLM - January, 2014

Change the Weather History Date:

Tuesday, January 28, 2014

  Actual Average Record
Temperature  
Mean Temperature 16 °F -  
Max Temperature 21 °F 36 °F 62 °F (2002)
Min Temperature 12 °F 23 °F 0 °F (2005)
Degree Days  
Heating Degree Days 48    
Moisture  
Dew Point -4 °F    
Average Humidity 41    
Maximum Humidity 79    
Minimum Humidity 35    
Precipitation  
Precipitation 0.00 in - - ()
Sea Level Pressure  
Sea Level Pressure 30.27 in    
Wind  
Wind Speed 11 mph (WNW)    
Max Wind Speed 21 mph    
Max Gust Speed 25 mph    
Visibility 10 miles    
Events      
Averages and records for this station are not official NWS values.
T = Trace of Precipitation, MM = Missing Value Source: NWS Daily Summary

Daily Weather History Graph

Daily Weather History Graph

Search for Another Location

Airport or City:

Trip Planner

Search our weather history database for the weather conditions in past years. The results will help you decide how hot, cold, wet, or windy it might be!

Date:

Astronomy

Jan. 28, 2014 Rise Set
Actual Time 7:08 AM EST 5:10 PM EST
Civil Twilight 6:39 AM EST 5:39 PM EST
Nautical Twilight 6:07 AM EST 6:12 PM EST
Astronomical Twilight 5:35 AM EST 6:44 PM EST
Moon 4:48 AM EST (1/28) 2:57 PM EST (1/28)
Length of Visible Light 10h 59m
Length of Day
10h 01m
Waning Crescent, 7% of the Moon is Illuminated
Jan 28
Waning Crescent
Jan 30
New
Feb 6
First Quarter
Feb 14
Full
Feb 22
Last Quarter

Hourly Weather History & Observations

Time (EST) Temp. Windchill Dew Point Humidity Pressure Visibility Wind Dir Wind Speed Gust Speed Precip Events Conditions
12:15 AM 21.2 °F 8.9 °F -2.2 °F 36% 30.09 in 10.0 mi NW 12.7 mph 20.7 mph N/A   Clear
12:35 AM 21.2 °F 7.3 °F -0.4 °F 39% 30.10 in 10.0 mi WNW 16.1 mph 19.6 mph N/A   Clear
12:55 AM 21.2 °F 10.9 °F -2.2 °F 36% 30.10 in 10.0 mi NW 9.2 mph - N/A   Clear
1:15 AM 19.4 °F 9.5 °F -2.2 °F 39% 30.11 in 10.0 mi WNW 8.1 mph - N/A   Clear
1:35 AM 19.4 °F 3.6 °F -2.2 °F 39% 30.12 in 10.0 mi WNW 19.6 mph 24.2 mph N/A   Clear
1:55 AM 19.4 °F 3.2 °F -2.2 °F 39% 30.13 in 10.0 mi NW 20.7 mph 25.3 mph N/A   Clear
2:15 AM 19.4 °F 5.5 °F -2.2 °F 39% 30.14 in 10.0 mi NW 15.0 mph 24.2 mph N/A   Clear
2:35 AM 19.4 °F 9.5 °F -2.2 °F 39% 30.15 in 10.0 mi WNW 8.1 mph - N/A   Clear
2:55 AM 19.4 °F 5.0 °F -2.2 °F 39% 30.16 in 10.0 mi WNW 16.1 mph 23.0 mph N/A   Clear
3:15 AM 17.6 °F 6.4 °F -2.2 °F 42% 30.17 in 10.0 mi WNW 9.2 mph - N/A   Clear
3:35 AM 17.6 °F 4.3 °F -2.2 °F 42% 30.18 in 10.0 mi WNW 12.7 mph 19.6 mph N/A   Clear
3:55 AM 17.6 °F 5.7 °F -2.2 °F 42% 30.19 in 10.0 mi NW 10.4 mph 17.3 mph N/A   Clear
4:15 AM 17.6 °F 3.2 °F -2.2 °F 42% 30.20 in 10.0 mi NW 15.0 mph 19.6 mph N/A   Clear
4:35 AM 17.6 °F 2.2 °F -2.2 °F 42% 30.21 in 10.0 mi NW 17.3 mph - N/A   Clear
4:55 AM 15.8 °F 2.1 °F -2.2 °F 45% 30.23 in 10.0 mi NW 12.7 mph 16.1 mph N/A   Clear
5:15 AM 15.8 °F -0.6 °F -2.2 °F 45% 30.24 in 10.0 mi WNW 18.4 mph 24.2 mph N/A   Clear
5:35 AM 15.8 °F 0.3 °F -5.8 °F 38% 30.25 in 10.0 mi WNW 16.1 mph 24.2 mph N/A   Clear
5:55 AM 15.8 °F 2.7 °F -5.8 °F 38% 30.26 in 10.0 mi WNW 11.5 mph 20.7 mph N/A   Clear
6:15 AM 14.0 °F -0.8 °F -7.6 °F 38% 30.28 in 10.0 mi WNW 13.8 mph - N/A   Clear
6:35 AM 14.0 °F -0.2 °F -7.6 °F 38% 30.29 in 10.0 mi WNW 12.7 mph 19.6 mph N/A   Clear
6:55 AM 14.0 °F -0.8 °F -5.8 °F 41% 30.30 in 10.0 mi NW 13.8 mph 18.4 mph N/A   Clear
7:15 AM 12.2 °F -3.7 °F -5.8 °F 45% 30.31 in 10.0 mi NW 15.0 mph 18.4 mph N/A   Clear
7:35 AM 12.2 °F -3.7 °F -5.8 °F 45% 30.32 in 10.0 mi NW 15.0 mph 18.4 mph N/A   Clear
7:55 AM 12.2 °F -3.1 °F -5.8 °F 45% 30.32 in 10.0 mi NW 13.8 mph - N/A   Clear
8:15 AM 12.2 °F -3.1 °F -4.0 °F 48% 30.33 in 10.0 mi NW 13.8 mph - N/A   Clear
8:35 AM 14.0 °F 1.2 °F -4.0 °F 45% 30.33 in 10.0 mi NW 10.4 mph - N/A   Clear
8:55 AM 14.0 °F -0.8 °F -4.0 °F 45% 30.35 in 10.0 mi NW 13.8 mph 19.6 mph N/A   Clear
9:15 AM 14.0 °F 1.2 °F -2.2 °F 49% 30.36 in 10.0 mi WNW 10.4 mph - N/A   Clear
9:35 AM 14.0 °F 0.5 °F -4.0 °F 45% 30.37 in 10.0 mi NW 11.5 mph - N/A   Clear
9:55 AM 14.0 °F 1.2 °F -4.0 °F 45% 30.37 in 10.0 mi WNW 10.4 mph 18.4 mph N/A   Clear
10:15 AM 15.8 °F 1.4 °F -4.0 °F 41% 30.38 in 10.0 mi NNW 13.8 mph - N/A   Clear
10:35 AM 15.8 °F 1.4 °F -4.0 °F 41% 30.37 in 10.0 mi WNW 13.8 mph - N/A   Clear
10:55 AM 15.8 °F 2.7 °F -5.8 °F 38% 30.36 in 10.0 mi WNW 11.5 mph - N/A   Clear
11:15 AM 15.8 °F 2.7 °F -4.0 °F 41% 30.36 in 10.0 mi WNW 11.5 mph 18.4 mph N/A   Clear
11:35 AM 15.8 °F 2.7 °F -5.8 °F 38% 30.35 in 10.0 mi NW 11.5 mph 18.4 mph N/A   Clear
11:55 AM 15.8 °F 6.1 °F -5.8 °F 38% 30.35 in 10.0 mi WNW 6.9 mph - N/A   Clear
12:15 PM 15.8 °F 3.4 °F -5.8 °F 38% 30.34 in 10.0 mi WNW 10.4 mph - N/A   Clear
12:35 PM 15.8 °F 3.4 °F -5.8 °F 38% 30.32 in 10.0 mi NW 10.4 mph - N/A   Clear
12:55 PM 15.8 °F 5.1 °F -5.8 °F 38% 30.32 in 10.0 mi West 8.1 mph - N/A   Clear
1:15 PM 15.8 °F 5.1 °F -5.8 °F 38% 30.32 in 10.0 mi WNW 8.1 mph - N/A   Clear
1:35 PM 15.8 °F 6.1 °F -5.8 °F 38% 30.31 in 10.0 mi WNW 6.9 mph - N/A   Partly Cloudy
1:55 PM 17.6 °F 8.2 °F -5.8 °F 35% 30.31 in 10.0 mi WNW 6.9 mph - N/A   Scattered Clouds
2:15 PM 17.6 °F 6.4 °F -5.8 °F 35% 30.31 in 10.0 mi West 9.2 mph - N/A   Partly Cloudy
2:35 PM 17.6 °F 7.3 °F -5.8 °F 35% 30.31 in 10.0 mi NW 8.1 mph - N/A   Scattered Clouds
2:55 PM 17.6 °F 7.3 °F -5.8 °F 35% 30.32 in 10.0 mi NW 8.1 mph - N/A   Mostly Cloudy
3:15 PM 17.6 °F 8.2 °F -5.8 °F 35% 30.33 in 10.0 mi NW 6.9 mph - N/A   Mostly Cloudy
3:35 PM 17.6 °F 7.3 °F -5.8 °F 35% 30.33 in 10.0 mi NW 8.1 mph - N/A   Partly Cloudy
3:55 PM 17.6 °F 8.2 °F -5.8 °F 35% 30.32 in 10.0 mi West 6.9 mph - N/A   Partly Cloudy
4:15 PM 17.6 °F 9.3 °F -5.8 °F 35% 30.32 in 10.0 mi WNW 5.8 mph - N/A   Clear
4:35 PM 17.6 °F 9.3 °F -5.8 °F 35% 30.31 in 10.0 mi West 5.8 mph - N/A   Partly Cloudy
4:55 PM 17.6 °F 9.3 °F -5.8 °F 35% 30.31 in 10.0 mi NW 5.8 mph - N/A   Mostly Cloudy
5:15 PM 17.6 °F 10.7 °F -4.0 °F 38% 30.31 in 10.0 mi West 4.6 mph - N/A   Overcast
5:35 PM 17.6 °F 9.3 °F -5.8 °F 35% 30.31 in 10.0 mi WNW 5.8 mph - N/A   Overcast
5:55 PM 17.6 °F 12.3 °F -4.0 °F 38% 30.31 in 10.0 mi West 3.5 mph - N/A   Overcast
6:15 PM 17.6 °F 12.3 °F -4.0 °F 38% 30.31 in 10.0 mi West 3.5 mph - N/A   Overcast
6:35 PM 17.6 °F 8.2 °F -4.0 °F 38% 30.30 in 10.0 mi WNW 6.9 mph - N/A   Overcast
6:55 PM 17.6 °F 9.3 °F -4.0 °F 38% 30.30 in 10.0 mi NW 5.8 mph - N/A   Overcast
7:15 PM 17.6 °F 8.2 °F -5.8 °F 35% 30.30 in 10.0 mi WNW 6.9 mph - N/A   Overcast
7:35 PM 17.6 °F 9.3 °F -5.8 °F 35% 30.30 in 10.0 mi WNW 5.8 mph - N/A   Overcast
7:55 PM 17.6 °F 8.2 °F -4.0 °F 38% 30.29 in 10.0 mi NW 6.9 mph - N/A   Overcast
8:15 PM 17.6 °F 9.3 °F -4.0 °F 38% 30.29 in 10.0 mi WNW 5.8 mph - N/A   Overcast
8:35 PM 15.8 °F 8.6 °F -5.8 °F 38% 30.29 in 10.0 mi NW 4.6 mph - N/A   Overcast
8:55 PM 15.8 °F 8.6 °F -4.0 °F 41% 30.28 in 10.0 mi NW 4.6 mph - N/A   Overcast
9:15 PM 15.8 °F 8.6 °F -5.8 °F 38% 30.27 in 10.0 mi NW 4.6 mph - N/A   Overcast
9:35 PM 15.8 °F 7.2 °F -4.0 °F 41% 30.27 in 10.0 mi WNW 5.8 mph - N/A   Overcast
9:55 PM 15.8 °F 7.2 °F -4.0 °F 41% 30.25 in 10.0 mi NW 5.8 mph - N/A   Overcast
10:15 PM 15.8 °F 7.2 °F -4.0 °F 41% 30.25 in 10.0 mi WNW 5.8 mph - N/A   Overcast
10:35 PM 15.8 °F 8.6 °F -5.8 °F 38% 30.25 in 10.0 mi WNW 4.6 mph - N/A   Overcast
10:55 PM 15.8 °F 6.1 °F -4.0 °F 41% 30.25 in 8.0 mi WNW 6.9 mph - N/A   Overcast
11:15 PM 14.0 °F 3.9 °F 1.4 °F 57% 30.24 in 3.0 mi NW 6.9 mph - N/A   Overcast
11:35 PM 12.2 °F 4.3 °F 3.2 °F 67% 30.23 in 3.0 mi NW 4.6 mph - N/A   Overcast
11:55 PM 12.2 °F 1.7 °F 6.8 °F 79% 30.23 in 3.0 mi WNW 6.9 mph - N/A   Overcast